Flag for United Arab Emirates Weather past 2 weeks in Abu Dhabi, Abu Dhabi, United Arab Emirates

Now
57 °F

Sunny.


Feels Like: 57 °F
Forecast: 66 / 81 °F
Wind: 3 mph from Southeast

Location: Abu Dhabi Bateen Airport

Current Time: Mar 1, 2015 at 7:27:15 AM

Latest Report: Mar 1, 2015 at 7:00 AM


Visibility: 10 mi

Pressure: 29.98 "Hg

Humidity: 63%

Dew point: 45 °F

Location of Abu DhabiLocation

Historic Weather in Abu Dhabi — Graph

°F

Abu Dhabi temperature yesterday

Maximum temperature yesterday: 73 °F (at 12:00 PM)
Minimum temperature yesterday: 63 °F (at 7:00 AM)
Average temperature yesterday: 68 °F

Past Weeks' High & Low Weather Summary

 TemperatureHumidityPressure
High99 °F (Feb 19, 4:00 PM)100% (Feb 17, 5:00 AM)30.12 "Hg (Feb 17, 5:00 AM)
Low57 °F (Feb 24, 1:00 AM)7% (Feb 20, 7:00 PM)29.62 "Hg (Feb 20, 3:00 PM)
Average73 °F49%29.92 "Hg
* Reported Feb 14 6:00 AM — Mar 1 6:00 AM, Abu Dhabi, Weather by CustomWeather, © 2015

Note: Actual official high and low records may vary slightly from our data, if they occured in-between our weather recording intervals... More about our weather records

Advertising

Abu Dhabi weather history for previous 24 hours

 ConditionsComfort  
Time TempWeatherWind HumidityBarometerVisibility
6:00 AM
Sun, Mar 1
57 °FClear.2 mph67%29.95 "Hg10 mi
5:00 AM57 °FClear.2 mph72%29.95 "Hg10 mi
4:00 AM59 °FClear.No wind63%29.92 "Hg10 mi
3:00 AM61 °FClear.3 mph63%29.95 "Hg10 mi
2:00 AM63 °FClear.2 mph56%29.95 "Hg10 mi
1:00 AM64 °FClear.5 mph56%29.98 "Hg10 mi
12:00 AM64 °FPassing clouds.5 mph56%29.98 "HgN/A
11:00 PM
Sat, Feb 28
66 °FPassing clouds.3 mph52%29.98 "HgN/A
10:00 PM66 °FPassing clouds.5 mph52%30.01 "HgN/A
9:00 PM66 °FClear.9 mph52%30.01 "Hg10 mi
8:00 PM68 °FClear.10 mph49%29.98 "Hg10 mi
7:00 PM68 °FClear.12 mph49%29.98 "Hg10 mi
6:00 PM70 °FSunny.10 mph43%29.95 "Hg10 mi
5:00 PM72 °FPassing clouds.13 mph38%29.95 "HgN/A
4:00 PM72 °FSunny.14 mph36%29.95 "Hg10 mi
3:00 PM73 °FPassing clouds.14 mph33%29.95 "HgN/A
2:00 PM73 °FPassing clouds.15 mph33%29.98 "HgN/A
1:00 PM73 °FSunny.14 mph33%30.01 "Hg10 mi
12:00 PM73 °FPassing clouds.12 mph29%30.04 "HgN/A
11:00 AM72 °FPassing clouds.12 mph33%30.04 "HgN/A
10:00 AM70 °FSunny.9 mph35%30.04 "Hg10 mi
9:00 AM66 °FPassing clouds.7 mph46%30.04 "HgN/A
8:00 AM63 °FSunny.6 mph56%30.01 "Hg10 mi
7:00 AM63 °FSunny.9 mph56%30.01 "Hg10 mi
Weather by CustomWeather, © 2015

See weather overviewHow to use our weather pages